TimeEDT,TemperatureF,Dew PointF,Humidity,Sea Level PressureIn,VisibilityMPH,Wind Direction,Wind SpeedMPH,Gust SpeedMPH,PrecipitationIn,Events,Conditions,WindDirDegrees,DateUTC
12:53 AM,53.1,52.0,96,29.80,10.0,Calm,Calm,-,N/A,,Clear,0,2013-06-13 04:53:00
1:53 AM,50.0,48.0,93,29.79,10.0,West,3.5,-,N/A,,Clear,280,2013-06-13 05:53:00
2:53 AM,54.0,52.0,93,29.80,10.0,West,5.8,-,N/A,,Clear,270,2013-06-13 06:53:00
3:53 AM,48.0,46.9,96,29.80,10.0,West,4.6,-,N/A,,Clear,270,2013-06-13 07:53:00
4:53 AM,52.0,51.1,97,29.80,10.0,WNW,4.6,-,N/A,,Clear,300,2013-06-13 08:53:00
5:53 AM,53.1,52.0,96,29.82,10.0,WNW,4.6,-,N/A,,Clear,290,2013-06-13 09:53:00
6:53 AM,60.1,55.9,86,29.83,10.0,NW,3.5,-,N/A,,Clear,310,2013-06-13 10:53:00
7:53 AM,64.9,55.9,73,29.82,10.0,Calm,Calm,-,N/A,,Clear,0,2013-06-13 11:53:00
8:53 AM,66.9,52.0,59,29.81,10.0,SSE,3.5,-,N/A,,Mostly Cloudy,150,2013-06-13 12:53:00
9:53 AM,64.0,57.0,78,29.81,10.0,SSE,4.6,-,N/A,,Overcast,160,2013-06-13 13:53:00
10:53 AM,64.9,52.0,63,29.80,10.0,SSE,6.9,-,0.00,,Overcast,150,2013-06-13 14:53:00
11:53 AM,64.0,54.0,70,29.79,10.0,ESE,6.9,-,0.00,Rain,Light Rain,110,2013-06-13 15:53:00
12:53 PM,64.0,55.9,75,29.79,10.0,SE,10.4,-,0.00,Rain,Light Rain,130,2013-06-13 16:53:00
1:53 PM,61.0,55.9,83,29.78,8.0,SE,9.2,-,0.02,Rain,Light Rain,130,2013-06-13 17:53:00
2:53 PM,61.0,53.1,75,29.76,10.0,SE,13.8,20.7,0.00,,Overcast,140,2013-06-13 18:53:00
3:53 PM,63.0,51.1,65,29.75,10.0,SE,17.3,24.2,N/A,,Scattered Clouds,130,2013-06-13 19:53:00
4:53 PM,61.0,51.1,70,29.72,10.0,ESE,10.4,-,N/A,,Overcast,120,2013-06-13 20:53:00
5:53 PM,61.0,52.0,72,29.70,10.0,ESE,11.5,-,N/A,,Overcast,120,2013-06-13 21:53:00
6:53 PM,61.0,51.1,70,29.68,10.0,ESE,11.5,20.7,N/A,,Overcast,120,2013-06-13 22:53:00
7:53 PM,60.1,51.1,72,29.65,10.0,ESE,13.8,-,N/A,,Overcast,110,2013-06-13 23:53:00
8:53 PM,57.0,53.1,87,29.66,9.0,East,12.7,-,0.03,Rain,Light Rain,90,2013-06-14 00:53:00
9:53 PM,57.0,53.1,87,29.65,10.0,ENE,16.1,20.7,0.00,,Overcast,70,2013-06-14 01:53:00
10:40 PM,57.2,53.6,88,29.61,9.0,ENE,21.9,28.8,0.02,Rain,Light Rain,70,2013-06-14 02:40:00
10:53 PM,57.0,54.0,89,29.60,8.0,East,18.4,-,0.03,Rain,Rain,80,2013-06-14 02:53:00
11:23 PM,55.4,53.6,94,29.58,2.5,ENE,19.6,31.1,0.22,Rain,Heavy Rain,70,2013-06-14 03:23:00
11:40 PM,55.4,53.6,94,29.58,3.0,ENE,21.9,32.2,0.37,Rain,Heavy Rain,70,2013-06-14 03:40:00
11:53 PM,55.9,54.0,93,29.57,6.0,ENE,20.7,36.8,0.40,Rain,Light Rain,70,2013-06-14 03:53:00